QPF
0.00 0.00 0.00 0.00 0.00 0.00 0.00 0.00 0.00 0.00 0.00 0.00 0.00 0.00 0.00 0.00 0.00 0.00 0.00 0.00 0.00 0.00 0.00 0.00 0.00 0.00 0.01 0.01 0.01 0.01 0.01 0.02 0.02 0.02 0.02 0.02 0.02 0.03
0.00 0.00 0.00 0.00 0.00 0.00 0.00 0.00 0.00 0.00 0.00 0.00 0.00 0.00 0.00 0.00 0.00 0.00 0.00 0.00 0.00 0.00 0.00 0.00 0.00 0.01 0.01 0.01 0.01 0.02 0.02 0.02 0.03 0.03 0.03 0.03 0.04 0.04
0.00 0.00 0.00 0.00 0.00 0.00 0.00 0.00 0.00 0.00 0.00 0.00 0.00 0.00 0.00 0.00 0.00 0.00 0.00 0.00 0.00 0.00 0.00 0.00 0.00 0.01 0.01 0.01 0.02 0.02 0.02 0.03 0.03 0.03 0.04 0.04 0.04 0.04
0.00 0.00 0.00 0.00 0.00 0.00 0.00 0.00 0.00 0.00 0.00 0.00 0.00 0.00 0.00 0.00 0.00 0.00 0.00 0.00 0.00 0.00 0.00 0.00 0.01 0.01 0.01 0.01 0.02 0.02 0.02 0.03 0.03 0.03 0.03 0.03 0.04 0.04
0.00 0.00 0.00 0.00 0.00 0.00 0.00 0.00 0.00 0.00 0.00 0.00 0.00 0.00 0.00 0.00 0.00 0.00 0.00 0.00 0.00 0.00 0.00 0.00 0.00 0.00 0.01 0.01 0.02 0.02 0.02 0.02 0.03 0.03 0.03 0.03 0.03 0.03
0.00 0.00 0.00 0.00 0.00 0.00 0.00 0.00 0.00 0.00 0.00 0.00 0.00 0.00 0.00 0.00 0.00 0.00 0.00 0.00 0.00 0.00 0.00 0.00 0.00 0.00 0.01 0.01 0.01 0.01 0.01 0.02 0.02 0.03 0.03 0.03 0.03 0.03
0.00 0.00 0.00 0.00 0.00 0.00 0.00 0.00 0.00 0.00 0.00 0.00 0.01 0.00 0.00 0.00 0.01 0.01 0.01 0.01 0.00 0.00 0.00 0.00 0.00 0.00 0.00 0.00 0.00 0.01 0.01 0.02 0.02 0.03 0.03 0.03 0.03 0.03
0.00 0.00 0.00 0.00 0.00 0.00 0.00 0.00 0.00 0.00 0.00 0.01 0.01 0.01 0.01 0.01 0.01 0.01 0.01 0.01 0.01 0.00 0.01 0.01 0.00 0.00 0.00 0.00 0.00 0.01 0.02 0.02 0.03 0.03 0.03 0.03 0.03 0.03
0.00 0.00 0.00 0.00 0.00 0.00 0.00 0.00 0.00 0.00 0.00 0.01 0.01 0.01 0.01 0.01 0.01 0.01 0.02 0.03 0.03 0.01 0.02 0.02 0.01 0.01 0.00 0.00 0.01 0.01 0.02 0.03 0.03 0.03 0.03 0.03 0.03 0.04
0.00 0.00 0.00 0.00 0.00 0.00 0.00 0.00 0.00 0.00 0.00 0.01 0.01 0.01 0.01 0.01 0.02 0.03 0.04 0.05 0.03 0.02 0.02 0.03 0.01 0.01 0.01 0.00 0.01 0.01 0.02 0.03 0.03 0.03 0.03 0.03 0.03 0.03
0.00 0.00 0.00 0.00 0.00 0.00 0.00 0.00 0.00 0.00 0.00 0.01 0.01 0.02 0.02 0.03 0.03 0.04 0.04 0.05 0.04 0.02 0.02 0.03 0.02 0.01 0.01 0.00 0.01 0.01 0.01 0.01 0.02 0.02 0.03 0.04 0.04 0.04
0.00 0.00 0.00 0.00 0.00 0.00 0.01 0.01 0.01 0.01 0.01 0.01 0.01 0.01 0.01 0.01 0.02 0.02 0.02 0.03 0.04 0.03 0.01 0.02 0.02 0.02 0.03 0.01 0.01 0.00 0.00 0.00 0.01 0.02 0.02 0.02 0.03 0.03
0.00 0.00 0.00 0.00 0.00 0.01 0.01 0.01 0.01 0.02 0.02 0.02 0.02 0.01 0.01 0.01 0.01 0.01 0.01 0.02 0.04 0.03 0.01 0.03 0.03 0.02 0.03 0.02 0.00 0.00 0.00 0.01 0.01 0.01 0.01 0.02 0.02 0.02
0.00 0.00 0.00 0.00 0.01 0.01 0.01 0.01 0.02 0.02 0.02 0.02 0.02 0.01 0.01 0.01 0.01 0.01 0.01 0.01 0.01 0.02 0.01 0.02 0.04 0.03 0.04 0.03 0.01 0.00 0.00 0.01 0.01 0.01 0.01 0.01 0.02 0.02
0.00 0.00 0.00 0.01 0.01 0.01 0.01 0.01 0.01 0.01 0.01 0.01 0.01 0.01 0.01 0.01 0.01 0.01 0.01 0.01 0.01 0.00 0.00 0.01 0.02 0.03 0.04 0.04 0.02 0.01 0.01 0.01 0.01 0.01 0.01 0.01 0.01 0.01
0.00 0.01 0.01 0.01 0.01 0.01 0.01 0.01 0.01 0.01 0.01 0.01 0.01 0.01 0.01 0.01 0.01 0.01 0.01 0.01 0.01 0.01 0.00 0.00 0.01 0.03 0.04 0.03 0.03 0.02 0.02 0.02 0.01 0.01 0.01 0.01 0.00 0.01
0.01 0.01 0.01 0.01 0.01 0.01 0.01 0.01 0.01 0.01 0.01 0.01 0.01 0.01 0.01 0.01 0.01 0.01 0.01 0.01 0.01 0.01 0.01 0.01 0.01 0.01 0.02 0.03 0.03 0.02 0.02 0.02 0.02 0.02 0.01 0.01 0.01 0.00
0.01 0.02 0.01 0.01 0.01 0.01 0.01 0.01 0.01 0.01 0.01 0.01 0.01 0.01 0.01 0.01 0.01 0.01 0.01 0.01 0.01 0.01 0.01 0.01 0.01 0.02 0.02 0.01 0.01 0.02 0.02 0.02 0.02 0.02 0.02 0.02 0.01 0.01
0.01 0.01 0.01 0.01 0.01 0.01 0.01 0.01 0.01 0.01 0.01 0.01 0.01 0.01 0.01 0.01 0.01 0.01 0.01 0.01 0.01 0.01 0.01 0.01 0.02 0.03 0.03 0.02 0.02 0.01 0.02 0.02 0.02 0.02 0.01 0.02 0.02 0.01
0.00 0.01 0.01 0.01 0.01 0.01 0.02 0.02 0.01 0.01 0.01 0.01 0.01 0.01 0.01 0.01 0.02 0.01 0.01 0.01 0.01 0.01 0.01 0.01 0.02 0.03 0.04 0.03 0.02 0.01 0.01 0.02 0.02 0.02 0.01 0.01 0.01 0.00
0.00 0.00 0.01 0.01 0.01 0.01 0.01 0.01 0.01 0.01 0.01 0.01 0.01 0.01 0.01 0.01 0.01 0.01 0.01 0.01 0.01 0.01 0.01 0.01 0.02 0.02 0.02 0.02 0.02 0.01 0.01 0.01 0.01 0.01 0.01 0.01 0.01 0.01
0.01 0.01 0.01 0.01 0.01 0.01 0.01 0.01 0.01 0.01 0.01 0.01 0.01 0.01 0.01 0.01 0.02 0.01 0.01 0.01 0.01 0.01 0.01 0.01 0.01 0.01 0.02 0.02 0.02 0.01 0.01 0.01 0.01 0.00 0.01 0.01 0.01 0.01
0.01 0.01 0.01 0.01 0.01 0.01 0.01 0.01 0.02 0.01 0.01 0.01 0.01 0.01 0.01 0.02 0.02 0.02 0.02 0.01 0.01 0.01 0.01 0.01 0.01 0.01 0.01 0.01 0.01 0.01 0.01 0.01 0.01 0.01 0.00 0.00 0.00 0.00
MSLP
1022.28 1022.72 1023.14 1023.49 1023.76 1023.93 1024.01 1023.99 1023.91 1023.77 1023.59 1023.39 1023.16 1022.91 1022.63 1022.33 1021.99 1021.64 1021.27 1020.90 1020.53 1020.18 1019.83 1019.49 1019.13 1018.73 1018.30 1017.81 1017.28 1016.72 1016.16 1015.61 1015.11 1014.66 1014.28 1013.95 1013.66 1013.38
1022.14 1022.52 1022.89 1023.21 1023.47 1023.66 1023.78 1023.82 1023.81 1023.74 1023.62 1023.45 1023.23 1022.96 1022.65 1022.28 1021.89 1021.47 1021.05 1020.63 1020.24 1019.87 1019.52 1019.17 1018.81 1018.40 1017.95 1017.44 1016.88 1016.29 1015.70 1015.14 1014.63 1014.19 1013.82 1013.51 1013.24 1012.98
1021.91 1022.24 1022.55 1022.83 1023.07 1023.27 1023.42 1023.52 1023.57 1023.57 1023.51 1023.39 1023.20 1022.94 1022.61 1022.22 1021.78 1021.32 1020.85 1020.39 1019.97 1019.57 1019.20 1018.83 1018.44 1018.01 1017.53 1016.98 1016.39 1015.78 1015.16 1014.59 1014.08 1013.64 1013.29 1013.00 1012.76 1012.52
1021.62 1021.90 1022.15 1022.39 1022.60 1022.79 1022.96 1023.09 1023.20 1023.26 1023.26 1023.20 1023.05 1022.82 1022.50 1022.10 1021.65 1021.16 1020.66 1020.18 1019.72 1019.29 1018.88 1018.47 1018.05 1017.58 1017.05 1016.47 1015.85 1015.21 1014.58 1013.99 1013.48 1013.06 1012.71 1012.45 1012.22 1012.01
1021.26 1021.50 1021.71 1021.91 1022.09 1022.26 1022.42 1022.58 1022.71 1022.82 1022.87 1022.85 1022.75 1022.55 1022.26 1021.89 1021.44 1020.96 1020.45 1019.95 1019.47 1019.01 1018.56 1018.12 1017.64 1017.13 1016.56 1015.95 1015.29 1014.63 1013.98 1013.39 1012.88 1012.46 1012.13 1011.88 1011.68 1011.48
1020.85 1021.07 1021.25 1021.40 1021.55 1021.69 1021.84 1021.98 1022.12 1022.24 1022.32 1022.34 1022.28 1022.13 1021.88 1021.55 1021.14 1020.69 1020.20 1019.71 1019.22 1018.74 1018.26 1017.77 1017.25 1016.69 1016.08 1015.43 1014.75 1014.06 1013.41 1012.82 1012.31 1011.90 1011.58 1011.34 1011.15 1010.97
1020.40 1020.60 1020.76 1020.89 1021.00 1021.11 1021.22 1021.33 1021.45 1021.55 1021.63 1021.67 1021.64 1021.54 1021.35 1021.08 1020.74 1020.33 1019.89 1019.43 1018.95 1018.46 1017.96 1017.43 1016.87 1016.27 1015.63 1014.95 1014.24 1013.55 1012.89 1012.30 1011.80 1011.39 1011.08 1010.84 1010.66 1010.50
1019.91 1020.11 1020.26 1020.36 1020.44 1020.51 1020.57 1020.64 1020.71 1020.78 1020.85 1020.89 1020.89 1020.82 1020.70 1020.50 1020.23 1019.90 1019.53 1019.11 1018.66 1018.18 1017.66 1017.11 1016.52 1015.89 1015.21 1014.51 1013.79 1013.10 1012.44 1011.86 1011.36 1010.96 1010.65 1010.42 1010.25 1010.10
1019.37 1019.58 1019.73 1019.82 1019.87 1019.90 1019.91 1019.92 1019.94 1019.98 1020.01 1020.05 1020.06 1020.04 1019.98 1019.86 1019.67 1019.43 1019.12 1018.76 1018.34 1017.88 1017.36 1016.80 1016.18 1015.53 1014.83 1014.11 1013.40 1012.71 1012.06 1011.49 1011.01 1010.62 1010.31 1010.09 1009.91 1009.77
1018.79 1019.01 1019.16 1019.25 1019.28 1019.28 1019.25 1019.21 1019.18 1019.18 1019.18 1019.21 1019.23 1019.25 1019.24 1019.20 1019.09 1018.93 1018.70 1018.39 1018.02 1017.57 1017.06 1016.48 1015.86 1015.18 1014.48 1013.76 1013.06 1012.38 1011.76 1011.20 1010.74 1010.36 1010.06 1009.84 1009.67 1009.53
1018.16 1018.39 1018.55 1018.64 1018.67 1018.65 1018.59 1018.52 1018.46 1018.42 1018.40 1018.42 1018.46 1018.51 1018.56 1018.57 1018.54 1018.44 1018.27 1018.01 1017.67 1017.24 1016.73 1016.15 1015.52 1014.84 1014.14 1013.44 1012.75 1012.10 1011.51 1010.99 1010.55 1010.19 1009.91 1009.69 1009.53 1009.39
1017.49 1017.73 1017.90 1018.00 1018.04 1018.01 1017.94 1017.86 1017.78 1017.72 1017.70 1017.72 1017.78 1017.86 1017.94 1018.01 1018.02 1017.98 1017.84 1017.62 1017.29 1016.87 1016.37 1015.79 1015.16 1014.50 1013.82 1013.14 1012.49 1011.88 1011.33 1010.85 1010.44 1010.11 1009.84 1009.64 1009.48 1009.36
1016.79 1017.03 1017.22 1017.34 1017.38 1017.37 1017.30 1017.22 1017.14 1017.09 1017.08 1017.11 1017.19 1017.30 1017.41 1017.50 1017.55 1017.52 1017.41 1017.20 1016.88 1016.46 1015.96 1015.39 1014.78 1014.14 1013.49 1012.86 1012.26 1011.71 1011.22 1010.78 1010.42 1010.12 1009.88 1009.69 1009.54 1009.42
1016.08 1016.33 1016.52 1016.65 1016.71 1016.71 1016.67 1016.60 1016.55 1016.51 1016.52 1016.58 1016.68 1016.80 1016.93 1017.04 1017.09 1017.07 1016.96 1016.74 1016.42 1016.00 1015.50 1014.95 1014.36 1013.77 1013.17 1012.60 1012.07 1011.59 1011.16 1010.79 1010.47 1010.21 1009.99 1009.82 1009.68 1009.56
1015.38 1015.62 1015.81 1015.94 1016.02 1016.04 1016.02 1015.98 1015.96 1015.96 1016.00 1016.08 1016.20 1016.35 1016.48 1016.59 1016.64 1016.60 1016.47 1016.24 1015.90 1015.49 1015.00 1014.48 1013.93 1013.39 1012.87 1012.38 1011.94 1011.53 1011.17 1010.86 1010.59 1010.36 1010.17 1010.01 1009.88 1009.75
1014.71 1014.93 1015.10 1015.23 1015.31 1015.34 1015.35 1015.35 1015.36 1015.40 1015.48 1015.59 1015.74 1015.90 1016.04 1016.14 1016.17 1016.11 1015.95 1015.70 1015.36 1014.94 1014.48 1014.00 1013.51 1013.04 1012.60 1012.21 1011.85 1011.53 1011.25 1011.00 1010.77 1010.57 1010.40 1010.24 1010.10 1009.96
1014.06 1014.26 1014.41 1014.52 1014.59 1014.63 1014.65 1014.68 1014.73 1014.82 1014.94 1015.09 1015.27 1015.44 1015.58 1015.67 1015.68 1015.60 1015.42 1015.15 1014.80 1014.40 1013.97 1013.54 1013.12 1012.74 1012.39 1012.09 1011.82 1011.58 1011.37 1011.17 1010.98 1010.80 1010.63 1010.46 1010.30 1010.14
1013.46 1013.60 1013.72 1013.80 1013.85 1013.89 1013.93 1013.98 1014.07 1014.20 1014.37 1014.57 1014.77 1014.96 1015.11 1015.20 1015.19 1015.09 1014.90 1014.62 1014.28 1013.90 1013.51 1013.14 1012.80 1012.50 1012.24 1012.03 1011.85 1011.68 1011.52 1011.36 1011.19 1011.02 1010.84 1010.65 1010.46 1010.27
1012.87 1012.97 1013.03 1013.08 1013.11 1013.14 1013.18 1013.26 1013.39 1013.57 1013.78 1014.02 1014.26 1014.48 1014.64 1014.73 1014.72 1014.62 1014.42 1014.15 1013.82 1013.47 1013.13 1012.82 1012.55 1012.33 1012.16 1012.03 1011.91 1011.81 1011.69 1011.55 1011.39 1011.20 1011.00 1010.79 1010.57 1010.33
1012.31 1012.35 1012.36 1012.36 1012.36 1012.38 1012.44 1012.54 1012.70 1012.92 1013.18 1013.47 1013.75 1014.00 1014.19 1014.29 1014.29 1014.18 1014.00 1013.74 1013.44 1013.13 1012.84 1012.58 1012.38 1012.24 1012.14 1012.07 1012.01 1011.94 1011.85 1011.72 1011.55 1011.35 1011.12 1010.88 1010.62 1010.34
1011.77 1011.75 1011.71 1011.67 1011.64 1011.64 1011.70 1011.83 1012.03 1012.29 1012.60 1012.93 1013.25 1013.53 1013.74 1013.86 1013.88 1013.80 1013.63 1013.39 1013.13 1012.86 1012.62 1012.42 1012.28 1012.19 1012.15 1012.13 1012.10 1012.06 1011.99 1011.86 1011.69 1011.47 1011.21 1010.94 1010.65 1010.34
1011.26 1011.18 1011.10 1011.01 1010.96 1010.95 1011.02 1011.16 1011.38 1011.68 1012.02 1012.39 1012.75 1013.06 1013.30 1013.45 1013.49 1013.43 1013.29 1013.09 1012.86 1012.63 1012.44 1012.30 1012.21 1012.17 1012.17 1012.18 1012.19 1012.17 1012.11 1011.98 1011.80 1011.57 1011.30 1011.00 1010.69 1010.38
1010.81 1010.68 1010.54 1010.43 1010.35 1010.33 1010.40 1010.55 1010.79 1011.11 1011.48 1011.87 1012.26 1012.59 1012.85 1013.02 1013.08 1013.05 1012.94 1012.78 1012.60 1012.42 1012.27 1012.17 1012.13 1012.14 1012.17 1012.22 1012.26 1012.26 1012.20 1012.09 1011.91 1011.68 1011.41 1011.11 1010.80 1010.48
Thickness
5515 5510 5505 5501 5496 5491 5486 5481 5473 5471 5474 5477 5475 5475 5470 5467 5464 5462 5459 5456 5454 5453 5451 5450 5449 5449 5448 5448 5448 5448 5449 5450 5451 5453 5455 5457 5460 5463
5507 5501 5496 5491 5487 5482 5477 5472 5467 5462 5461 5465 5463 5461 5459 5456 5452 5449 5446 5443 5440 5438 5437 5436 5434 5433 5432 5431 5431 5431 5431 5432 5433 5434 5436 5438 5441 5444
5498 5493 5487 5483 5477 5473 5468 5463 5458 5453 5453 5457 5453 5450 5446 5442 5439 5435 5432 5428 5426 5423 5421 5419 5418 5415 5414 5413 5412 5411 5411 5411 5412 5413 5414 5416 5419 5422
5490 5484 5479 5474 5469 5464 5459 5454 5450 5445 5442 5444 5442 5437 5432 5428 5424 5420 5417 5413 5409 5406 5403 5401 5399 5396 5394 5392 5391 5390 5390 5389 5390 5390 5391 5394 5396 5398
5482 5476 5470 5465 5459 5455 5450 5445 5441 5437 5432 5430 5429 5424 5419 5413 5409 5405 5401 5397 5392 5388 5384 5381 5378 5374 5371 5369 5367 5366 5365 5365 5366 5366 5366 5368 5371 5374
5473 5467 5462 5456 5451 5446 5441 5436 5431 5425 5419 5415 5413 5409 5404 5398 5392 5388 5386 5381 5375 5369 5364 5359 5356 5352 5348 5345 5342 5341 5341 5341 5342 5343 5344 5346 5349 5352
5464 5459 5454 5449 5444 5438 5433 5426 5420 5413 5406 5401 5399 5395 5390 5381 5374 5369 5366 5363 5359 5349 5345 5341 5334 5331 5326 5322 5320 5319 5319 5320 5321 5323 5325 5327 5330 5334
5455 5451 5446 5440 5436 5431 5426 5420 5412 5402 5394 5389 5385 5379 5374 5365 5358 5352 5346 5342 5341 5335 5325 5324 5315 5312 5308 5305 5304 5304 5304 5305 5306 5308 5311 5313 5316 5320
5447 5442 5438 5433 5427 5421 5416 5410 5402 5393 5385 5377 5370 5364 5357 5350 5341 5336 5329 5323 5321 5315 5306 5307 5301 5297 5295 5292 5292 5292 5292 5293 5295 5297 5300 5303 5306 5310
5439 5433 5427 5422 5416 5409 5403 5397 5389 5381 5372 5363 5356 5350 5342 5334 5326 5319 5314 5311 5308 5300 5290 5289 5289 5286 5285 5282 5281 5281 5283 5284 5286 5289 5292 5295 5299 5303
5430 5424 5417 5411 5406 5398 5391 5383 5377 5369 5360 5351 5344 5337 5330 5322 5313 5305 5299 5293 5294 5290 5279 5274 5276 5275 5275 5274 5274 5274 5275 5277 5279 5282 5285 5288 5292 5296
5421 5414 5407 5400 5393 5385 5376 5367 5360 5354 5346 5339 5331 5323 5315 5307 5299 5291 5283 5278 5276 5275 5271 5264 5263 5260 5265 5268 5267 5267 5268 5269 5273 5276 5279 5283 5287 5291
5410 5403 5395 5387 5380 5372 5363 5353 5346 5340 5333 5325 5318 5310 5302 5294 5287 5280 5273 5266 5263 5262 5259 5255 5254 5251 5250 5257 5260 5261 5262 5264 5267 5271 5274 5278 5282 5286
5399 5391 5383 5374 5366 5358 5349 5340 5332 5325 5317 5309 5302 5296 5289 5282 5277 5271 5265 5260 5256 5254 5252 5248 5246 5245 5246 5249 5253 5256 5258 5260 5263 5267 5270 5274 5278 5282
5386 5378 5370 5362 5353 5344 5335 5326 5318 5310 5302 5295 5289 5284 5277 5272 5267 5262 5258 5254 5252 5249 5247 5244 5242 5242 5242 5244 5248 5251 5254 5258 5261 5264 5267 5270 5273 5277
5370 5363 5355 5347 5337 5329 5321 5312 5303 5295 5288 5283 5278 5273 5267 5262 5257 5253 5249 5247 5245 5244 5243 5241 5240 5240 5241 5242 5245 5248 5251 5254 5258 5261 5264 5268 5271 5275
5354 5347 5338 5329 5321 5313 5306 5299 5291 5284 5278 5272 5267 5262 5257 5253 5249 5245 5242 5240 5238 5238 5238 5238 5238 5238 5240 5241 5244 5247 5250 5253 5256 5258 5261 5265 5269 5273
5338 5330 5322 5314 5306 5299 5292 5286 5279 5273 5267 5262 5257 5252 5248 5244 5241 5238 5236 5234 5233 5233 5233 5233 5234 5235 5238 5242 5245 5247 5249 5251 5254 5256 5259 5262 5267 5271
5322 5314 5306 5298 5291 5285 5278 5272 5267 5261 5256 5251 5247 5242 5239 5236 5234 5232 5230 5229 5229 5229 5229 5229 5230 5231 5234 5236 5241 5246 5246 5249 5251 5254 5257 5260 5263 5268
5306 5298 5291 5284 5277 5271 5266 5261 5256 5251 5246 5242 5237 5234 5230 5228 5227 5226 5225 5224 5225 5225 5225 5226 5227 5229 5231 5233 5236 5241 5245 5246 5249 5252 5255 5258 5262 5267
5293 5285 5278 5271 5265 5259 5254 5249 5245 5240 5236 5232 5229 5226 5224 5222 5221 5220 5221 5222 5222 5221 5221 5223 5225 5229 5230 5231 5233 5238 5242 5246 5248 5249 5252 5255 5258 5263
5281 5274 5267 5260 5254 5248 5243 5239 5235 5232 5228 5225 5223 5220 5219 5217 5217 5216 5217 5217 5218 5218 5219 5221 5224 5226 5227 5229 5232 5235 5239 5243 5247 5250 5252 5255 5255 5259
5269 5263 5256 5250 5245 5239 5234 5230 5227 5225 5222 5219 5217 5216 5214 5213 5213 5214 5214 5214 5215 5216 5217 5219 5221 5224 5226 5229 5231 5234 5237 5241 5244 5247 5251 5255 5258 5261